国际通讯卫星 902星 (INTELSAT 902 (IS-902))

导读

INTELSAT 902是国际通信卫星组织(ITSO)于2001年8月30日发射的商用通信卫星,隶属于国际通信卫星9系列,依托成熟卫星平台打造,设计寿命较长。该卫星主要面向跨区域通信服务,可提供电话、电视转播、数据传输等多种通信业务,覆盖指定地区满足全球互联需求,是国际通信卫星组网中承担洲际通信服务的重要节点,支持公共通信与商业传媒等多领域应用,推动了全球跨区域信息互联互通。

Basic Information
目录编号:
26900
目录名称:
INTELSAT 902
国际标识:
2001-039A
轨道中心:
EARTH
卫星名称:
国际通讯卫星 902星
卫星全名:
国际通讯卫星 902星 (INTELSAT 902 (IS-902))
卫星状态:
在轨 (已飞行9098 天)
发射日期:
2001-08-30 UTC
国别 :
(ITSO)
星等 :
--
Orbit Information
数据来源 国际轨道数据 AOE轨道数据
星历时间 2026-07-28T06:08:09+0800
16小时前
查看轨道信息
2026-07-26T09:00:00+0800
2天前
查看轨道信息
半长轴 42165.149km 42164.981km
偏心率 0.0004248 0.0004297
轨道倾角 6.216° 6.211°
近地点辐角 55.882° 52.927°
升交点赤经 71.277° 71.302°
平近点角 100.364° 144.412°
近地点 35769.1km 35768.725km
远地点 35804.924km 35804.963km
周期 1436.118分钟 1436.110分钟
每日圈数 1.002703 1.002709
Detailed Information
卫星平台:
SSL 1300HL
平衡模式:
三轴稳定
覆盖范围:
全球
运营商:
国际卫星通信公司
运营商所在国:
美国
制造商(研发单位):
劳拉空间系统公司
制造商所在国:
美国
使用方式:
暂无
Satellite Introduction
从1965年4月至1984年3月,国际通信卫星组织发射了5代、6种不同性能的卫星共计35颗,除6颗卫星因运载火箭和远地点发动机故障而发射失败外,其余29颗卫星均被送到了预定的静止轨道位置。1984年8月前后,国际通信卫星组织利用部署在大西洋、太平洋、印度洋上空的15颗国际通信卫星,为遍布世界各地170多个国家或地区提供电话、电传、电报、电视和数据传输等电信业务;该卫星仍在工作。
2D Orbit Map
3D Orbit Map
Orbit Altitude Analysis Chart
Orbit Inclination Analysis Chart
Orbit Comprehensive Analysis Chart
View Comprehensive Chart